Weather History for KTKC - December, 2012

Change the Weather History Date:

Wednesday, December 5, 2012

  Actual Average (KMML) Record (KMML)
Temperature  
Mean Temperature 32 °F -  
Max Temperature 48 °F 31 °F 50 °F (2012)
Min Temperature 17 °F 13 °F -13 °F (2005)
Degree Days  
Heating Degree Days 33    
Moisture  
Dew Point 19 °F    
Average Humidity 58    
Maximum Humidity 76    
Minimum Humidity 38    
Precipitation  
Precipitation 0.00 in - - ()
Sea Level Pressure  
Sea Level Pressure 30.02 in    
Wind  
Wind Speed 12 mph (South)    
Max Wind Speed 26 mph    
Max Gust Speed 36 mph    
Visibility 10 miles    
Events      
Averages and records for this station are not official NWS values.
T = Trace of Precipitation, MM = Missing Value Source: NWS Daily Summary

Daily Weather History Graph

Daily Weather History Graph

Search for Another Location

Airport or City:

Trip Planner

Search our weather history database for the weather conditions in past years. The results will help you decide how hot, cold, wet, or windy it might be!

Date:

Astronomy

Dec. 05, 2012 Rise Set
Actual Time 7:42 AM CST 4:43 PM CST
Civil Twilight 7:09 AM CST 5:16 PM CST
Nautical Twilight 6:33 AM CST 5:52 PM CST
Astronomical Twilight 5:58 AM CST 6:27 PM CST
Moon 11:45 PM CST (12/5) 11:56 AM CST (12/5)
Length of Visible Light 10h 06m
Length of Day
9h 00m
Waning Gibbous, 59% of the Moon is Illuminated
Dec 5
Waning Gibbous
Dec 6
Last Quarter
Dec 13
New
Dec 19
First Quarter
Dec 28
Full

Hourly Weather History & Observations

Time (CST) Temp. Windchill Dew Point Humidity Pressure Visibility Wind Dir Wind Speed Gust Speed Precip Events Conditions
12:15 AM 19.2 °F - 11.3 °F 71% 30.37 in 10.0 mi Calm Calm - N/A   Clear
12:35 AM 19.4 °F - 11.8 °F 72% 30.35 in 10.0 mi Calm Calm - N/A   Clear
12:55 AM 19.4 °F - 12.0 °F 73% 30.34 in 10.0 mi Calm Calm - N/A   Clear
1:15 AM 19.4 °F - 11.3 °F 71% 30.34 in 10.0 mi Calm Calm - N/A   Clear
1:55 AM 19.2 °F 11.3 °F 11.7 °F 72% 30.33 in 10.0 mi SSE 5.8 mph - N/A   Clear
2:15 AM 18.9 °F 9.8 °F 11.3 °F 72% 30.32 in 10.0 mi SE 6.9 mph - N/A   Clear
2:35 AM 19.0 °F 10.0 °F 11.3 °F 72% 30.32 in 10.0 mi SE 6.9 mph - N/A   Clear
2:55 AM 19.2 °F 10.2 °F 11.5 °F 72% 30.32 in 10.0 mi SE 6.9 mph - N/A   Clear
3:16 AM 18.7 °F 11.9 °F 11.3 °F 73% 30.33 in 10.0 mi SSE 4.6 mph - N/A   Clear
3:35 AM 18.3 °F - 11.3 °F 74% 30.33 in 10.0 mi Calm Calm - N/A   Clear
3:55 AM 17.6 °F - 11.3 °F 76% 30.31 in 10.0 mi Calm Calm - N/A   Clear
4:15 AM 17.6 °F 6.4 °F 11.1 °F 76% 30.30 in 10.0 mi SSE 9.2 mph - N/A   Clear
4:35 AM 18.5 °F 6.8 °F 11.7 °F 75% 30.28 in 10.0 mi SSE 10.4 mph - N/A   Clear
4:55 AM 19.0 °F 7.5 °F 11.7 °F 73% 30.28 in 10.0 mi SSE 10.4 mph - N/A   Clear
5:15 AM 18.9 °F 6.5 °F 11.7 °F 74% 30.27 in 10.0 mi SSE 11.5 mph - N/A   Clear
5:35 AM 19.4 °F 9.5 °F 11.7 °F 72% 30.26 in 10.0 mi SE 8.1 mph - N/A   Clear
5:55 AM 19.2 °F 7.7 °F 11.8 °F 73% 30.26 in 10.0 mi SE 10.4 mph - N/A   Clear
6:15 AM 19.2 °F 7.7 °F 11.8 °F 73% 30.25 in 10.0 mi SSE 10.4 mph 16.1 mph N/A   Clear
6:35 AM 19.2 °F 7.0 °F 11.8 °F 73% 30.25 in 10.0 mi SSE 11.5 mph - N/A   Clear
6:55 AM 19.2 °F 7.7 °F 12.0 °F 74% 30.24 in 10.0 mi SSE 10.4 mph - N/A   Clear
8:36 AM 22.8 °F 8.9 °F 13.5 °F 67% 30.19 in 10.0 mi SSE 17.3 mph 21.9 mph N/A   Clear
8:56 AM 23.9 °F 10.3 °F 14.0 °F 66% 30.17 in 10.0 mi SSE 17.3 mph 23.0 mph N/A   Clear
9:15 AM 25.3 °F 12.2 °F 14.7 °F 64% 30.16 in 10.0 mi SSE 17.3 mph 24.2 mph N/A   Clear
9:35 AM 27.1 °F 15.4 °F 14.9 °F 60% 30.16 in 10.0 mi SSE 15.0 mph 21.9 mph N/A   Clear
9:56 AM 28.4 °F 15.4 °F 15.3 °F 58% 30.15 in 10.0 mi SSE 19.6 mph 25.3 mph N/A   Clear
10:15 AM 29.5 °F 16.2 °F 15.8 °F 57% 30.13 in 10.0 mi SSE 21.9 mph 27.6 mph N/A   Clear
10:36 AM 31.3 °F 18.5 °F 16.7 °F 55% 30.11 in 10.0 mi SSE 21.9 mph 29.9 mph N/A   Clear
10:55 AM 32.2 °F 20.7 °F 17.4 °F 55% 30.10 in 10.0 mi SSE 18.4 mph 29.9 mph N/A   Clear
11:15 AM 34.5 °F 22.5 °F 18.3 °F 52% 30.07 in 10.0 mi South 23.0 mph 32.2 mph N/A   Clear
11:35 AM 35.6 °F 24.2 °F 19.0 °F 51% 30.06 in 10.0 mi South 21.9 mph 29.9 mph N/A   Clear
11:55 AM 36.1 °F 25.0 °F 19.4 °F 51% 30.04 in 10.0 mi South 21.9 mph 31.1 mph N/A   Clear
12:15 PM 36.9 °F 26.5 °F 20.3 °F 51% 30.02 in 10.0 mi South 19.6 mph 28.8 mph N/A   Clear
12:35 PM 37.4 °F 26.4 °F 20.3 °F 50% 30.00 in 10.0 mi South 23.0 mph 28.8 mph N/A   Clear
12:55 PM 38.5 °F 28.1 °F 21.0 °F 50% 29.98 in 10.0 mi South 21.9 mph 31.1 mph N/A   Clear
1:15 PM 39.2 °F 28.7 °F 21.4 °F 49% 29.96 in 10.0 mi South 23.0 mph 28.8 mph N/A   Clear
1:36 PM 39.7 °F 28.8 °F 21.6 °F 48% 29.94 in 10.0 mi South 26.5 mph 33.4 mph N/A   Clear
1:55 PM 40.3 °F 31.0 °F 21.9 °F 48% 29.92 in 10.0 mi South 19.6 mph 29.9 mph N/A   Scattered Clouds
2:16 PM 41.4 °F 31.9 °F 22.1 °F 46% 29.91 in 10.0 mi South 21.9 mph 29.9 mph N/A   Scattered Clouds
2:35 PM 42.1 °F 32.3 °F 22.5 °F 46% 29.90 in 10.0 mi South 24.2 mph 31.1 mph N/A   Clear
2:55 PM 42.3 °F 33.3 °F 22.5 °F 45% 29.89 in 10.0 mi South 20.7 mph 27.6 mph N/A   Clear
3:16 PM 41.9 °F 32.6 °F 22.6 °F 46% 29.88 in 10.0 mi South 21.9 mph 31.1 mph N/A   Clear
3:36 PM 42.1 °F 33.3 °F 23.0 °F 47% 29.87 in 10.0 mi South 19.6 mph 33.4 mph N/A   Clear
3:55 PM 42.1 °F 33.6 °F 23.4 °F 48% 29.87 in 10.0 mi South 18.4 mph 27.6 mph N/A   Clear
4:15 PM 42.1 °F 33.3 °F 23.5 °F 48% 29.86 in 10.0 mi South 19.6 mph 28.8 mph N/A   Scattered Clouds
4:36 PM 42.1 °F 34.2 °F 23.9 °F 49% 29.85 in 10.0 mi South 16.1 mph 27.6 mph N/A   Scattered Clouds
4:55 PM 41.9 °F 33.4 °F 24.3 °F 50% 29.84 in 10.0 mi South 18.4 mph 25.3 mph N/A   Scattered Clouds
5:16 PM 42.6 °F 34.0 °F 24.6 °F 49% 29.83 in 10.0 mi South 19.6 mph 28.8 mph N/A   Clear
5:35 PM 42.4 °F 33.1 °F 24.8 °F 50% 29.82 in 10.0 mi South 23.0 mph 35.7 mph N/A   Clear
5:55 PM 42.4 °F 33.5 °F 25.3 °F 51% 29.82 in 10.0 mi South 20.7 mph 28.8 mph N/A   Clear
6:15 PM 42.1 °F 32.8 °F 25.5 °F 52% 29.82 in 10.0 mi South 21.9 mph 33.4 mph N/A   Clear
6:35 PM 41.5 °F 32.6 °F 25.7 °F 53% 29.80 in 10.0 mi South 19.6 mph 27.6 mph N/A   Clear
6:55 PM 41.5 °F 32.6 °F 26.1 °F 54% 29.80 in 10.0 mi South 19.6 mph 28.8 mph N/A   Clear
7:15 PM 41.5 °F 32.1 °F 26.4 °F 55% 29.79 in 10.0 mi South 21.9 mph 28.8 mph N/A   Clear
7:35 PM 42.1 °F 33.1 °F 26.6 °F 54% 29.77 in 10.0 mi South 20.7 mph 33.4 mph N/A   Clear
7:56 PM 42.1 °F 32.8 °F 27.1 °F 55% 29.77 in 10.0 mi South 21.9 mph 32.2 mph N/A   Clear
8:15 PM 42.1 °F 32.3 °F 27.3 °F 56% 29.76 in 10.0 mi South 24.2 mph 33.4 mph N/A   Clear
8:36 PM 42.3 °F 32.8 °F 27.5 °F 56% 29.76 in 10.0 mi South 23.0 mph 33.4 mph N/A   Clear
8:55 PM 42.4 °F 32.8 °F 27.5 °F 56% 29.75 in 10.0 mi South 24.2 mph 31.1 mph N/A   Clear
9:15 PM 43.0 °F 34.2 °F 27.5 °F 54% 29.75 in 10.0 mi South 20.7 mph 32.2 mph N/A   Clear
9:35 PM 43.3 °F 35.2 °F 27.5 °F 54% 29.75 in 10.0 mi South 18.4 mph 28.8 mph N/A   Clear
9:55 PM 44.2 °F 35.9 °F 27.1 °F 51% 29.74 in 10.0 mi South 20.7 mph 29.9 mph N/A   Mostly Cloudy
10:15 PM 45.0 °F 36.9 °F 26.6 °F 49% 29.73 in 10.0 mi South 20.7 mph 28.8 mph N/A   Mostly Cloudy
10:36 PM 45.9 °F 38.3 °F 26.2 °F 46% 29.72 in 10.0 mi South 19.6 mph 26.5 mph N/A   Clear
10:55 PM 46.8 °F - 25.5 °F 43% 29.72 in 10.0 mi South 20.7 mph 27.6 mph N/A   Clear
11:15 PM 47.3 °F - 25.2 °F 42% 29.72 in 10.0 mi South 18.4 mph 33.4 mph N/A   Clear
11:35 PM 47.7 °F - 24.8 °F 41% 29.72 in 10.0 mi SSW 21.9 mph 32.2 mph N/A   Mostly Cloudy
11:55 PM 48.6 °F - 24.1 °F 38% 29.71 in 10.0 mi SSW 19.6 mph 31.1 mph N/A   Mostly Cloudy